MST,Max TemperatureF,Mean TemperatureF,Min TemperatureF,Max Dew PointF,MeanDew PointF,Min DewpointF,Max Humidity, Mean Humidity, Min Humidity, Max Sea Level PressureIn, Mean Sea Level PressureIn, Min Sea Level PressureIn, Max VisibilityMiles, Mean VisibilityMiles, Min VisibilityMiles, Max Wind SpeedMPH, Mean Wind SpeedMPH, Max Gust SpeedMPH,PrecipitationIn, CloudCover, Events, WindDirDegrees
2012-12-1,69,54,38,35,26,21,70,46,21,30.00,29.88,29.72,10,10,10,20,10,24,0.00,0,,284
2012-12-2,66,49,31,27,26,22,66,42,18,30.01,29.82,29.56,10,10,10,33,17,40,0.00,0,,192
2012-12-3,58,40,21,30,16,6,59,39,19,30.23,29.95,29.52,10,10,8,39,13,45,0.00,0,,319
2012-12-4,59,39,19,21,12,7,62,37,12,30.44,30.29,30.17,10,10,10,17,9,22,0.00,0,,228
2012-12-5,67,49,30,27,23,18,69,42,15,30.16,29.94,29.76,10,10,10,23,11,28,0.00,0,,199
2012-12-6,47,36,24,31,19,10,59,41,23,30.04,29.95,29.79,10,10,9,23,11,29,0.00,4,,25
2012-12-7,51,37,23,21,16,13,63,46,29,30.04,29.95,29.86,10,10,10,22,8,26,0.00,3,,233
2012-12-8,50,34,18,27,21,10,74,54,34,29.99,29.85,29.68,10,10,10,32,13,40,0.00,3,,215
2012-12-9,33,17,0,16,2,-8,69,54,39,30.38,30.19,29.91,10,10,10,36,21,44,0.00,3,,335
2012-12-10,42,21,0,11,1,-5,69,43,17,30.27,30.06,29.94,10,10,10,20,11,23,0.00,3,,286
2012-12-11,43,28,13,17,10,7,84,54,23,30.16,30.03,29.91,10,10,10,21,12,25,0.00,0,,243
2012-12-12,61,40,18,13,10,5,57,35,12,29.91,29.86,29.78,10,10,10,21,13,25,0.00,0,,212
2012-12-13,58,37,16,16,12,7,59,39,19,30.06,29.99,29.90,10,10,9,17,7,21,0.00,0,Snow,154
2012-12-14,47,32,16,36,26,8,100,66,31,29.91,29.64,29.45,10,7,0,20,7,24,0.06,5,Fog-Rain-Snow,310
2012-12-15,50,38,26,34,29,22,92,69,46,29.76,29.68,29.49,10,10,8,24,10,28,0.01,4,Snow,308
2012-12-16,39,31,22,36,28,19,100,91,81,29.87,29.76,29.70,10,5,0,13,6,14,T,5,Fog-Snow,340
2012-12-17,56,36,15,22,17,12,84,51,18,29.86,29.72,29.57,10,10,9,21,11,25,0.00,1,,244
2012-12-18,51,35,19,19,9,-3,74,43,11,29.84,29.76,29.62,10,10,10,26,11,33,0.00,0,,336
2012-12-19,32,23,13,27,19,8,92,73,53,30.13,29.78,29.59,10,5,0,43,20,55,0.28,5,Fog-Snow,2
2012-12-20,37,20,3,17,7,-4,73,57,40,30.38,30.32,30.20,10,10,10,22,12,25,0.00,0,,280
2012-12-21,48,31,14,28,16,6,68,50,31,30.34,30.21,30.08,10,10,10,15,9,20,0.00,0,,217
2012-12-22,49,33,17,26,17,11,77,54,31,30.08,30.05,29.99,10,10,10,15,7,16,0.00,0,,299
2012-12-23,42,26,9,24,16,5,80,63,45,30.08,30.01,29.96,10,10,10,13,6,18,0.00,0,,269
2012-12-24,27,18,9,20,13,6,92,80,68,30.16,30.03,29.86,10,10,7,20,11,25,T,3,,102
2012-12-25,12,2,-9,7,4,-8,91,84,76,30.47,30.28,30.06,10,4,0,21,11,24,0.15,7,Snow,6
2012-12-26,17,4,-10,10,3,-15,87,80,73,30.34,30.10,29.86,10,10,5,23,13,29,T,4,Snow,165
2012-12-27,19,11,3,12,8,1,92,83,74,30.10,29.88,29.70,10,8,2,17,8,21,T,6,Snow,349
2012-12-28,27,14,1,16,6,-3,87,75,62,30.25,30.16,29.95,10,10,10,17,12,22,0.00,0,,303
2012-12-29,38,24,10,17,11,2,73,57,40,30.38,30.26,30.02,10,10,10,21,12,25,0.00,0,,226
2012-12-30,34,26,17,17,13,9,77,56,35,30.14,30.07,29.97,10,10,10,21,8,33,0.00,1,,338
2012-12-31,24,18,12,19,16,10,92,83,73,30.25,30.08,29.98,10,4,0,24,8,25,0.07,8,Fog-Snow,22